Location: Comstock Ranch
(38.0499°N, 120.2627°W)
Time: 21:44:14
(UTC+00:00)

Cosmos 1544 Rocket - Pass Details

Date: 08 September 2024
Orbit: 601 x 625 km, 82.5° (Epoch: 12 October)

Event Time Altitude Azimuth Distance (km) Brightness Sun altitude
Exits shadow 12:05:43 39° 241° (WSW) 907 3.9 -18.2°
Maximum altitude 12:06:42 47° 280° (W) 805 3.7 -18.0°
Drops below altitude 10° 12:10:55 10° 355° (N) 1,971 6.3 -17.3°
Sets 12:13:13 0° 1° (N) 2,884 7.3 -16.9°
